Regional Weather Roundup
Issued by NWS

Home | Current Version | Previous Version | Text Only | Print | Product List | Glossary Off
Versions: 1 2 3 4 5 6 7 8 9 10 11 12 13 14 15 16 17 18 19 20 21 22 23 24 25 26 27 28 29 30 31 32 33 34 35 36 37 38 39 40 41 42 43 44 45 46 47 48 49 50

000
ASUS45 KBOU 111207
RWRCO

WEATHER ROUNDUP FOR COLORADO
NATIONAL WEATHER SERVICE DENVER/BOULDER CO
500 AM MST THU FEB 11 2016

NOTE: "FAIR" INDICATES FEW OR NO CLOUDS BELOW 12000 FEET WITH NO
SIGNIFICANT WEATHER AND/OR OBSTRUCTIONS TO VISIBILITY.

COZ001>005-013-030-031-111300-
...NORTHWEST COLORADO...

CITY           SKY/WX    TMP DP  RH WIND       PRES   REMARKS
CRAIG          CLOUDY    -3  -7  82 CALM      30.40R
HAYDEN         CLOUDY    18   9  68 E13       30.37R WCI   4
MEEKER         CLOUDY    15   7  70 E7        30.39R WCI   5
MOUNT WERNER   NOT AVBL
STEAMBOAT SPGS CLOUDY    10   8  90 CALM      30.38S
WALDEN         CLOUDY    25  10  54 S7        30.33F WCI  17
$$

COZ006>008-011-111300-
...WEST CENTRAL VALLEYS...

CITY           SKY/WX    TMP DP  RH WIND       PRES   REMARKS
GRAND JUNCTION CLOUDY    22  20  92 E7        30.40S WCI  13
MONTROSE       CLOUDY    21  14  74 S9        30.44R WCI  11
EAGLE          CLOUDY    12  10  92 E6        30.46S WCI   3
RIFLE          CLOUDY    15  10  80 CALM      30.43R
DELTA          CLOUDY    26  22  83 CALM      30.43S
NUCLA          CLOUDY    23  16  74 SE3       30.44R
$$

COZ017>023-064>068-111300-
...SOUTHWEST COLORADO...

CITY           SKY/WX    TMP DP  RH WIND       PRES   REMARKS
DURANGO        CLOUDY    13  10  88 NE5       30.37R WCI   5
CORTEZ         CLOUDY    16  12  84 NE7       30.37R WCI   6
PAGOSA SPRINGS CLOUDY    17  15  91 CALM      30.37S
TELLURIDE      CLOUDY    28   3  34 SE5       30.43S WCI  23
WOLF CREEK PAS CLOUDY    27  -6  24 N8G17     30.49S WCI  18
$$

COZ009-010-012-014-032>034-037-058>063-111300-
...CENTRAL COLORADO...

CITY           SKY/WX    TMP DP  RH WIND       PRES   REMARKS
ASPEN          CLOUDY    14   6  70 S6        30.40R WCI   5
BUENA VISTA    CLOUDY    22  15  73 W3        30.35S
COPPER MTN     CLOUDY    27   0  31 W9G21     30.44R WCI  17
BERTHOUD PASS  FAIR      19   9  63 NW38G46   30.37R WCI  -1
COTTONWOOD PAS CLOUDY    36  -2  20 W7        30.37S
GUNNISON       CLOUDY   -11 -27  44 CALM      30.52R
KREMMLING      CLOUDY    -8 -13  77 CALM      30.46R
LEADVILLE      CLOUDY    20   2  45 NE8       30.39R WCI  10
MONARCH PASS   CLOUDY    21   1  42 MISG      30.52R
SALIDA         NOT AVBL
SUNLIGHT       CLOUDY    32   9  37 CALM      30.49R
WILKERSON PASS CLOUDY    30   0  27 NW14G22   30.38S WCI  20
$$

COZ069>075-111300-
...SAN LUIS VALLEY/SANGRE DE CRISTO MOUNTAINS...

CITY           SKY/WX    TMP DP  RH WIND       PRES   REMARKS
ALAMOSA        CLOUDY    16  13  88 W5        30.37R WCI   9
LA VETA PASS   CLOUDY    30   5  34 MISG      30.36S
SAGUACHE       CLOUDY    23  10  58 NW17      30.37S WCI   9
$$

COZ035-036-038>040-111300-
...NORTHERN COLORADO FRONT RANGE...

CITY           SKY/WX    TMP DP  RH WIND       PRES   REMARKS
DENVER INTL AP CLOUDY    31  20  63 S12       30.15S WCI  22
DMNS CITY PARK   N/A     38  13  35 S13       30.15S
AURORA         NOT AVBL
FRONT RANGE AP   N/A     30  21  69 S9        30.16S WCI  22
ERIE MUNI ARPT CLOUDY    35  20  55 SW3       30.14S
BOULDER MUN AP CLOUDY    54  10  17 W6        30.14S
CENTENNIAL     CLOUDY    34  16  47 S9        30.17F WCI  27
BROOMFIELD     CLOUDY    45  12  26 CALM      30.16S
FORT COLLINS   CLOUDY    34  19  55 E10       30.14S WCI  26
LONGMONT       CLOUDY    32  20  61 W3        30.15S
$$

COZ041-046-047-076>085-087-088-111300-
...PIKES PEAK/PALMER DIVIDE AND SOUTHERN FOOTHILLS...

CITY           SKY/WX    TMP DP  RH WIND       PRES   REMARKS
COLO. SPRINGS  CLOUDY    28  15  58 N5        30.23F WCI  23
A. F. ACADEMY  NOT AVBL
SCHRIEVER AFB  FAIR      33  18  53 W3        30.23F
ELLICOTT       CLOUDY   N/A N/A N/A CALM      30.21S
FALCON         NOT AVBL
FORT CARSON    NOT AVBL
LIMON          CLOUDY    22  15  75 W3        30.19R
MONUMENT HILL  CLOUDY    32   9  37 SW13      30.24R WCI  22
TRINIDAD       CLOUDY    30  13  49 W13       30.24F WCI  20
$$

COZ042>045-048>051-090-091-111300-
...NORTHEAST COLORADO...

CITY           SKY/WX    TMP DP  RH WIND       PRES   REMARKS
GREELEY ARPT   CLOUDY    23  18  80 CALM      30.15S
AKRON          CLOUDY    32  20  61 SW13      30.14R WCI  22
BURLINGTON     CLOUDY    29  20  69 NW13      30.15S WCI  19
WRAY           NOT AVBL
STERLING       CLOUDY    30  27  86 S3        30.13R
HOLYOKE        CLOUDY    28  23  80 SW8       30.13S WCI  20
FORT MORGAN    CLOUDY    28  20  70 W12       30.15S WCI  18
$$

COZ086-089-092>099-111300-
...SOUTHEAST COLORADO...

CITY           SKY/WX    TMP DP  RH WIND       PRES   REMARKS
PUEBLO         CLOUDY    28  20  71 CALM      30.20S
LA JUNTA       CLOUDY    33  22  63 W10       30.19F WCI  25
LAMAR          CLOUDY    28  23  81 SW7       30.18S WCI  21
SPRINGFIELD      N/A     27  19  72 W13       30.20R WCI  16
$$



USA.gov is the U.S. government's official web portal to all federal, state and local government web resources and services.